This is the latest recevied weather packets stored in our database for station/object KB9HUO. If no packets are shown the sender has not sent any weather packets the latest 10 day(s).
| Time | Temp. | Humidity | Pressure | Rain* | Wind** | Luminosity | Snow |
|---|---|---|---|---|---|---|---|
| 1778168605 | 15° C | 41% | 1017.9 hPa | 0 mm | - | 746 W/m² | - |
| 1778168302 | 14.44° C | 37% | 1017.8 hPa | 0 mm | - | 735 W/m² | - |
| 1778167998 | 14.44° C | 37% | 1017.8 hPa | 0 mm | - | 727 W/m² | - |
| 1778167695 | 14.44° C | 38% | 1017.9 hPa | 0 mm | - | 714 W/m² | - |
| 1778167391 | 14.44° C | 40% | 1017.9 hPa | 0 mm | - | 709 W/m² | - |
| 1778167087 | 13.89° C | 40% | 1017.9 hPa | 0 mm | - | 699 W/m² | - |
| 1778166783 | 13.33° C | 41% | 1017.8 hPa | 0 mm | - | 690 W/m² | - |
| 1778166480 | 13.33° C | 41% | 1017.9 hPa | 0 mm | - | 677 W/m² | - |
| 1778166177 | 13.33° C | 38% | 1017.8 hPa | 0 mm | - | 568 W/m² | - |
| 1778165873 | 13.33° C | 44% | 1017.8 hPa | 0 mm | - | 494 W/m² | - |
| 1778165570 | 12.78° C | 41% | 1017.9 hPa | 0 mm | - | 60 W/m² | - |
| 1778165267 | 12.78° C | 44% | 1018 hPa | 0 mm | - | 131 W/m² | - |
| 1778164964 | 12.78° C | 47% | 1018 hPa | 0 mm | - | 562 W/m² | - |
| 1778164661 | 12.78° C | 47% | 1017.9 hPa | 0 mm | - | 185 W/m² | - |
| 1778164358 | 12.78° C | 47% | 1018 hPa | 0 mm | - | 81 W/m² | - |
| 1778164054 | 12.22° C | 49% | 1018 hPa | 0 mm | - | 47 W/m² | - |
| 1778163751 | 12.22° C | 50% | 1017.8 hPa | 0 mm | - | 47 W/m² | - |
| 1778163447 | 11.67° C | 51% | 1017.9 hPa | 0 mm | - | 46 W/m² | - |
| 1778163144 | 11.67° C | 48% | 1017.7 hPa | 0 mm | - | 45 W/m² | - |
| 1778162840 | 11.67° C | 54% | 1017.9 hPa | 0 mm | - | 45 W/m² | - |
| 1778162538 | 11.67° C | 49% | 1017.9 hPa | 0 mm | - | 44 W/m² | - |
| 1778162235 | 11.11° C | 57% | 1017.8 hPa | 0 mm | - | 68 W/m² | - |
| 1778161932 | 11.11° C | 60% | 1017.7 hPa | 0 mm | - | 42 W/m² | - |
| 1778161628 | 11.11° C | 57% | 1017.6 hPa | 0 mm | - | 41 W/m² | - |
| 1778161324 | 10.56° C | 68% | 1017.9 hPa | 0 mm | - | 67 W/m² | - |
* Rain latest hour (hover to see other rain measurements)
** Current wind speed in m/s (hover to see current wind gust speed)